Weather History for Ontario, OR

Change the Weather History Date:

Thursday, July 25, 2013

  Actual Average Record
Temperature  
Mean Temperature 83 °F 78 °F  
Max Temperature 101 °F 96 °F 106 °F (1978)
Min Temperature 64 °F 59 °F 49 °F (1957)
Degree Days  
Heating Degree Days 0 0  
Month to date heating degree days 0 0  
Since 1 June heating degree days 39 52  
Since 1 July heating degree days 0 0  
Cooling Degree Days 18 13  
Month to date cooling degree days 415 273  
Year to date cooling degree days 666 448  
Since 1 June cooling degree days 619 412  
Growing Degree Days 32 (Base 50)    
Moisture  
Dew Point 47 °F    
Average Humidity 38    
Maximum Humidity 61    
Minimum Humidity 15    
Precipitation  
Precipitation 0.00 in 0.01 in 0.01 in (2003)
Month to date precipitation 0.00 0.27  
Year to date precipitation 2.61 6.03  
Sea Level Pressure  
Sea Level Pressure 29.92 in    
Wind  
Wind Speed 2 mph (SW)    
Max Wind Speed 14 mph    
Max Gust Speed 16 mph    
Visibility 10 miles    
Events      
T = Trace of Precipitation, MM = Missing Value Source: NWS Daily Summary

Daily Weather History Graph

Daily Weather History Graph

Search for Another Location

Airport:

Trip Planner

Search our weather history database for the weather conditions in past years. The results will help you decide how hot, cold, wet, or windy it might be!

Date:

Astronomy

Jul. 25, 2013 Rise Set
Actual Time 6:29 AM MDT 9:19 PM MDT
Civil Twilight 5:55 AM MDT 9:53 PM MDT
Nautical Twilight 5:12 AM MDT 10:35 PM MDT
Astronomical Twilight 4:22 AM MDT 11:25 PM MDT
Moon 10:51 PM MDT (7/25) 10:13 AM MDT (7/25)
Length of Visible Light 15h 57m
Length of Day
14h 50m
Waning Gibbous, 88% of the Moon is Illuminated
Jul 25
Waning Gibbous
Jul 29
Last Quarter
Aug 6
New
Aug 14
First Quarter
Aug 20
Full

Hourly Weather History & Observations

Time (MDT) Temp. Heat Index Dew Point Humidity Pressure Visibility Wind Dir Wind Speed Gust Speed Precip Events Conditions
12:53 AM 70.0 °F - 55.0 °F 59% 29.90 in 10.0 mi Calm Calm - N/A   Clear
1:53 AM 73.9 °F - 48.9 °F 41% 29.89 in 10.0 mi West 3.5 mph - N/A   Clear
2:53 AM 75.9 °F - 39.0 °F 26% 29.89 in 10.0 mi WNW 8.1 mph - N/A   Clear
3:53 AM 73.9 °F - 39.9 °F 29% 29.90 in 10.0 mi Calm Calm - N/A   Clear
4:53 AM 66.9 °F - 43.0 °F 42% 29.92 in 10.0 mi Calm Calm - N/A   Clear
5:53 AM 66.9 °F - 43.0 °F 42% 29.92 in 10.0 mi Calm Calm - N/A   Clear
6:53 AM 66.0 °F - 45.0 °F 47% 29.94 in 10.0 mi Calm Calm - N/A   Clear
7:53 AM 70.0 °F - 45.0 °F 41% 29.95 in 10.0 mi Calm Calm - N/A   Clear
8:53 AM 73.9 °F - 42.1 °F 32% 29.96 in 8.0 mi West 5.8 mph - N/A   Clear
9:53 AM 77.0 °F - 44.1 °F 31% 29.97 in 10.0 mi Calm Calm - N/A   Clear
10:53 AM 82.9 °F - 46.9 °F 28% 29.97 in 10.0 mi Calm Calm - N/A   Clear
11:53 AM 89.1 °F - 46.0 °F 22% 29.96 in 10.0 mi Calm Calm - N/A   Clear
12:53 PM 93.9 °F - 45.0 °F 18% 29.95 in 10.0 mi Calm Calm - N/A   Clear
1:53 PM 95.0 °F - 43.0 °F 17% 29.94 in 10.0 mi South 3.5 mph - N/A   Clear
2:53 PM 99.0 °F - 42.1 °F 14% 29.92 in 10.0 mi Calm Calm - N/A   Clear
3:53 PM 98.1 °F - 46.9 °F 18% 29.91 in 10.0 mi Calm Calm - N/A   Clear
4:53 PM 99.0 °F - 44.1 °F 15% 29.91 in 10.0 mi NE 4.6 mph - N/A   Clear
5:53 PM 95.0 °F - 45.0 °F 18% 29.90 in 10.0 mi South 8.1 mph - N/A   Clear
6:53 PM 97.0 °F 95.3 °F 55.9 °F 25% 29.87 in 10.0 mi East 3.5 mph - N/A   Clear
7:53 PM 93.0 °F 92.0 °F 57.9 °F 31% 29.86 in 10.0 mi ESE 4.6 mph - N/A   Clear
8:53 PM 87.1 °F 85.9 °F 57.0 °F 36% 29.88 in 10.0 mi Calm Calm - N/A   Clear
9:53 PM 80.1 °F 81.1 °F 61.0 °F 52% 29.90 in 10.0 mi Calm Calm - N/A   Clear
10:53 PM 75.0 °F - 54.0 °F 48% 29.93 in 10.0 mi West 3.5 mph - N/A   Clear
11:53 PM 80.1 °F - 41.0 °F 25% 29.93 in 10.0 mi Calm Calm - N/A   Clear